FENGYUN 1C DEB *, 47012

Orbit data source: Space-Track

FENGYUN 1C DEB *, 47012 is space debris in LEO originally from a launch on Mon, 10 May 1999 UTC launched from the Taiyaun Space Center, China (TSC). Fengyun 1C debris stems from the Chinese weather satellite Fengyun-1C, which was intentionally destroyed by a Chinese anti-satellite missile in 2007. This event dramatically increased the amount of space debris, with thousands of trackable fragments posing hazards to satellites and human spaceflight. The Fengyun 1C debris cloud has become a focal point in discussions about space sustainability and the need for international regulations to prevent the creation of new debris.

Loading next visibility...
FENGYUN 1C DEB * details
Identifier
47012, 1999-025FAN
Orbit
LEO
Last TLE update11 hours ago
Origin
Flag of CNCASC (CN / PRC)
ManufacturerUnknown
MissionSpacecraft
Bus & MotorUnknown
MassUnknown
Launch date (UTC)
1999-05-10 (26 years ago)
Launch vehicleUnknown
Launch site
Taiyaun Space Center, China (TSC)
Object type
Payload
Rocket body
Debris
Shape & HBRUnknown
Radar Cross SectionSmall (<0.1 m²)

Expand to show TLE details & history

TLE from 11 hours ago
0 FENGYUN 1C DEB *
1 47012U 99025FAN 24339.97595761  .00001792  00000-0  16678-2 0  9998
2 47012  98.7920 240.5394 0165208 342.9542  16.6100 13.77368887494402
Epoch: 2024-12-04T23:25Z
Definitive object data (Epoch: 2024-12-04T23:25:22.737Z)
Latitude-0.00012°
Longitude174.93129°
Altitude859.851 km
Speed7.481 km/s
True Right ascension16h 02m 09s
True Declination0° 00' 00"
Sunlit
Object was in daylight at TLE epoch
Visualization TLE readout
Latitude24.01208°
Longitude171.40911°
Altitude885.64 km
Speed7.457 km/s
Apparent Right ascension17h 32m 10s
Apparent Declination-6° 30' 53"
Sunlit
Object is in daylight
Visualization observer readout
Local Sidereal Time07:58:08
Azimuth54.237° ENE
Elevation-43.272°
Doppler factor1
Orbital elements
Apogee altitude1,091.857 km
Perigee altitude849.048 km
Semi-major axis7,348.589 km
Eccentricity0.0165208
Inclination98.792°
RAAN240.5394°
Arg. of periapsis342.9542°
True anomaly17.16207°
Mean anomaly16.61°
Eccentric anomaly16.88493°
Mean motion3.44538 °/min
BSTAR0.0016678
Orbital period104.49 mins
Loading maneuver chart data...
Loading historical data...
Loading historical data...
Loading historical data...
Loading historical data...
Loading historical data...
Loading historical data...
Loading historical data...

FENGYUN 1C DEB * Visibility forecast

Observer location: undefined°, undefined

Span
Click to sort rows by Start time (UTC) header in descending order
Start Az.
Max El. time (UTC)
Max El. Az.
Max El.
End time (UTC)
End Az.
10 mins2024-12-05 16:58:49.008Z139.738° SSE2024-12-05 17:03:49.008Z55.108° ENE36.514°2024-12-05 17:08:49.008Z357.921° N
7 mins2024-12-05 18:43:49.008Z227.574° WSW2024-12-05 18:46:49.008Z266.479° W20.855°2024-12-05 18:50:49.008Z313.925° NW
10 mins2024-12-06 05:39:49.008Z35.7° NE2024-12-06 05:44:49.008Z100.135° ESE31.838°2024-12-06 05:49:49.008Z159.476° S
9 mins2024-12-06 07:23:49.008Z347.115° N2024-12-06 07:27:49.008Z291.568° WNW31.457°2024-12-06 07:32:49.008Z232.572° WSW
|